www.pogodaiklimat.ru

Погода и климат >> Архив погоды >> Россия >> Красноярский край >> Бахта


ПОГОДА в Бахте

  • Прогноз погоды в Бахте
  • Монитор погоды в Бахте
  • Климат города

АРХИВ ПОГОДЫ в Бахте

Время (UTC), дата Ветер
(напр.,м/с)
 
Видим.   Явления Облачность Т
(С)
Тd
(С)
f
(%)
Тe
(С)
Тes
(С)
Комфортность P
(гПа)
Po
(гПа)
Тmin
(С)
Tmax
(С)
R
(мм)
R24
(мм)
S
(см)
03 9.07 штиль 0 50 км 1/1 600 м
[Sc]
+17.2 +11.5 69 +17 +28 1019.0 1013.2
06 9.07 Ю 2 50 км 1/1 600 м
[Cu hum]
+23.4 +7.1 35 +24 +36 комфорт 1017.5 1011.8
09 9.07 штиль 0 50 км 6/0
[Ci sp]
+24.9 +6.1 30 +25 +36 комфорт 1016.1 1010.4
12 9.07 штиль 0 50 км 8/0
[Ci sp]
+24.6 +9.2 38 +25 +28 комфорт 1015.1 1009.4 +24.9
15 9.07 штиль 0 50 км 4/0
[Ci sp]
+22.3 +10.5 47 +24 +24 комфорт 1014.4 1008.7
18 9.07 штиль 0 50 км 1/0
[Ci sp]
+17.4 +10.1 62 +17 +17 1014.5 1008.7
21 9.07 штиль 0 50 км ясно +15.0 +11.7 81 +15 +15 1014.1 1008.2
00 10.07 штиль 0 50 км ясно +15.4 +12.5 83 +15 +18 1014.1 1008.2 +15.0
03 10.07 штиль 0 50 км 6/0
[Ci sp]
+19.6 +14.5 72 +21 +32 комфорт 1013.2 1007.4
06 10.07 штиль 0 50 км 9/9 600 м
[Sc]
+23.5 +13.8 54 +26 +28 жарко 1012.3 1006.6
09 10.07 штиль 0 50 км {ливн. осадки} 9/9 600 м
[Cb cap]
+22.8 +13.5 56 +26 +27 жарко 1012.3 1006.6
12 10.07 штиль 0 50 км {ливн. осадки} 8/4 600 м
[Sc Ci sp]
+20.6 +14.8 69 +23 +25 комфорт 1011.7 1005.9 +23.5 0.0
15 10.07 штиль 0 50 км 9/9 600 м
[Cb cap]
+20.3 +15.2 73 +23 +23 комфорт 1011.5 1005.7
18 10.07 З 2 н/о 8/8 600 м
[Sc]
+18.8 +16.1 84 +20 +20 1011.7 1005.9
21 10.07 З 2 50 км 8/8 600 м
[Cb cap]
+16.9 +15.4 91 +17 +17 1011.4 1005.6
00 11.07 штиль 0 50 км 9/9 600 м
[Cb cap]
+16.4 +14.7 90 +16 +17 1011.9 1006.1 +16.4
03 11.07 СЗ 2 50 км 8/8 600 м
[Cu med, cong]
+20.2 +14.8 71 +23 +25 комфорт 1011.7 1005.9
06 11.07 С 4 50 км 8/8 600 м
[Cu med, cong]
+23.9 +14.7 56 +27 +28 жарко 1011.2 1005.5
09 11.07 С 4 50 км 6/6 600 м
[Cu med, cong]
+26.1 +12.1 42 +28 +30 жарко 1010.7 1005.1
12 11.07 С 2 50 км 4/4 600 м
[Cu med, cong]
+26.0 +10.8 39 +27 +29 жарко 1010.4 1004.8 +26.1
15 11.07 штиль 0 50 км 1/0
[Ci sp]
+23.6 +13.3 52 +26 +26 жарко 1010.4 1004.8
18 11.07 штиль 0 н/о 1/0
[Ci sp]
+18.2 +12.9 71 +18 +18 1010.8 1005.0
21 11.07 штиль 0 50 км 1/0
[Ci sp]
+14.7 +11.1 79 +14 +14 1010.7 1005.0
00 12.07 штиль 0 50 км 1/0
[Ci sp]
+16.4 +11.4 72 +16 +19 1011.2 1005.4 +14.7
03 12.07 штиль 0 50 км 1/0
[Ci fib]
+20.5 +11.1 55 +22 +34 комфорт 1010.6 1004.9
06 12.07 штиль 0 50 км 3/0
[Ci sp]
+25.8 +12.8 44 +28 +44 жарко 1009.5 1003.9
09 12.07 штиль 0 50 км 3/0
[Ci sp]
+27.2 +11.8 38 +28 +40 жарко 1008.4 1002.8
12 12.07 50 км 4/0 2000 м
[Ac trans Ci sp]
+27.7 +9.3 32 1007.6 1002.0 -27.7
15 12.07 С 2 50 км 6/0 2000 м
[Ac trans Ci sp]
+24.2 +12.4 48 +26 +26 жарко 1007.3 1001.7
18 12.07 С 2 н/о 8/8 600 м
[Sc]
+19.4 +8.7 50 +21 +21 комфорт 1007.5 1001.8
21 12.07 С 2 50 км 9/9 600 м
[Sc]
+17.2 +10.0 63 +18 +18 1007.0 1001.3
00 13.07 СЗ 2 50 км 9/9 600 м
[Sc]
+17.6 +11.4 67 +18 +18 1007.0 1001.3 +17.2
03 13.07 СЗ 2 50 км 8/8 600 м
[Cb cap]
+20.3 +11.0 55 +23 +24 комфорт 1006.8 1001.1
06 13.07 З 2 50 км 6/6 600 м
[Cu med, cong]
+22.6 +12.9 54 +25 +31 комфорт 1006.8 1001.2
09 13.07 З 4 50 км 4/4 600 м
[Cu med, cong]
+23.5 +8.1 37 +24 +28 комфорт 1006.8 1001.3
12 13.07 СЗ 4 50 км 3/3 600 м
[Cu hum]
+22.7 +6.5 35 +23 +25 комфорт 1006.9 1001.3 +23.5
15 13.07 С 4 50 км ясно +18.7 +7.5 48 +19 +19 1008.3 1002.6
18 13.07 С 4 н/о ясно +13.0 +6.1 63 +11 +11 1009.7 1003.9
21 13.07 С 2 50 км ясно +9.6 +5.2 74 +8 +8 1009.9 1004.0
00 14.07 С 2 50 км ясно +10.2 +4.9 70 +9 +11 1010.1 1004.2 +9.6
03 14.07 СЗ 2 50 км ясно +15.0 +5.8 54 +15 +24 1010.4 1004.6
06 14.07 СЗ 4 50 км ясно +19.6 +8.0 47 +20 +29 1010.4 1004.7
09 14.07 СЗ 4 50 км 3/3 600 м
[Cu hum]
+23.0 +10.3 45 +25 +29 комфорт 1010.4 1005.0
12 14.07 СЗ 4 50 км 3/3 600 м
[Sc]
+22.8 +7.5 37 +24 +25 комфорт 1010.8 1005.1 +23.0
15 14.07 СЗ 2 50 км ясно +20.9 +6.2 38 +22 +22 комфорт 1012.0 1006.2
18 14.07 С 2 н/о ясно +15.2 +9.2 67 +15 +15 1013.9 1008.0
21 14.07 штиль 0 50 км ясно +12.6 +7.8 73 +12 +12 1014.6 1008.7
00 15.07 штиль 0 50 км ясно +13.2 +8.0 71 +13 +16 1015.7 1009.8 +12.6
03 15.07 СЗ 4 50 км ясно +17.4 +8.0 54 +17 +23 1016.3 1010.5
06 15.07 СЗ 4 50 км ясно +22.6 +10.7 47 +25 +33 комфорт 1015.7 1010.0
09 15.07 СЗ 6 50 км 1/1 600 м
[Cu hum]
+24.4 +9.9 40 +25 +29 комфорт 1015.0 1009.3
12 15.07 СЗ 4 50 км 3/0
[Ci fib]
+24.2 +8.1 36 +25 +26 комфорт 1015.1 1009.4 +24.4
15 15.07 СЗ 2 50 км ясно +21.4 +8.0 42 +22 +22 комфорт 1015.2 1009.5
18 15.07 штиль 0 н/о 3/0
[Ci fib]
+17.6 +7.5 52 +18 +18 1015.4 1009.6
21 15.07 штиль 0 50 км 3/0
[Ci sp]
+13.5 +7.6 67 +13 +13 1015.7 1009.8
00 16.07 штиль 0 50 км 3/0
[Ci sp]
+14.6 +8.7 68 +14 +17 1016.2 1010.3 +13.5

 

Местоположение метеостанции Бахта (Красноярский край, Россия): широта 62.47 долгота 89.00 высота над уровнем моря 57 м.

В архиве по умолчанию представлена погода в Бахте за последнюю неделю. Архивные данные за месяц целиком и за предыдущие месяцы, начиная с января 2011 года, Вы можете получить, выбрав интересующий диапазон дат из раскрывающегося списка и нажав кнопку "Ввод!".


*Определитесь, кто Вы:
робот инопланетянин человек

Внимание! Время в таблицах - всемирное. Для получения местного времени необходимо прибавить поправку, которая в Бахте равна 7 ч.

Смотрите также архив погоды в соседних городах и на ближайших метеорологических станциях:

Погода в Верхнеимбатске (Красноярский край, Россия) (93 км)
Погода в Боре (Красноярский край, Россия) (110 км)
Погода в Келлоге (Красноярский край, Россия) (140 км)
Погода в Кузьмовке (Эвенкия, Россия) (162 км)
Погода в Ворогове (Красноярский край, Россия) (164 км)
Погода в Верещагино (Красноярский край, Россия) (210 км)
Погода в Сыме (Красноярский край, Россия) (238 км)
Погода в Ярцеве (Красноярский край, Россия) (252 км)
Погода в Вельмо (Красноярский край, Россия) (283 км)
Погода в Тутончанах (Эвенкия, Россия) (306 км)

Пояснения к столбцам:

Ветер - указаны скорость ветра в м/с - средняя за 10 мин, порывы в срок и между сроками (в фигурных скобках) и направление, откуда дует ветер: С - северный, СВ - северо-восточный, В - восточный, ЮВ - юго-восточный, Ю - южный, ЮЗ - юго-западный, З - западный, СЗ - северо-западный.
Видимость - горизонтальная дальность видимости в метрах или километрах. При видимости от 1 до 10 км при отсутствии осадков обычно наблюдается дымка, при ухудшении видимости до 1 км и менее - туман. В сухую погоду видимость может ухудшаться дымом, пылью или мглою.
Явления - указаны атмосферные явления, наблюдавшиеся в срок или в последний час перед сроком; фигурными скобками обозначены явления, наблюдавшиеся между сроками (за 1-3 часа до срока); квадратными скобками обозначены град или гололедные отложения с указанием их диаметра в мм.
Облачность - указаны через наклонную черту общая и нижняя облачность в баллах и высота нижней границы облаков в метрах; квадратными скобками обозначены формы облаков: Ci - перистые, Cs - перисто-слоистые, Cc - перисто-кучевые, Ac - высококучевые, As - высокослоистые, Sc - слоисто-кучевые, Ns - слоисто-дождевые, Cu - кучевые, Cb - кучево-дождевые. Подробнее классификацию облаков см. в Атласе облаков (PDF).
T - Температура воздуха - температура, измеренная на высоте 2 м над землей.
Td - Температура точки росы - температура, при понижении до которой содержащийся в воздухе водяной пар достигнет насыщения.
f - Относительная влажность воздуха - влажноcть воздуха, измеренная на высоте 2 м над землей.
Te - Эффективная температура - температура, которую ощущает одетый по сезону человек в тени. Характеристика душности погоды. При расчете учитывается влияние влажности воздуха и скорости ветра на теплоощущения человека.
Tes - Эффективная температура на солнце - температура, которую ощущает человек, с поправкой на солнечный нагрев. Характеристика знойности погоды. Зависит от высоты солнца над горизонтом, облачности и скорости ветра. Ночью, в пасмурную погоду, а также при ветре 12 м/с и более поправка равна нулю.
P - Атмосферное давление - приведенное к уровню моря атмосферное давление.
Po - Атмосферное давление - измеренное на уровне метеостанции атмосферное давление.
Tmin - Минимальная температура - минимум температуры воздуха на высоте 2 м над землей.
Tmax - Максимальная температура - максимум температуры воздуха на высоте 2 м над землей.
R - Количество осадков - Количество выпавших осадков за период времени, мм. При наведении курсора мыши на число - период времени, за который выпало указанное количество осадков.
R24 - Количество осадков - Количество выпавших осадков за 24 часа, мм.
S - Снежный покров - Высота снежного покрова, см. При наведении курсора мыши на число - состояние снежного покрова и степень покрытия местности в баллах.